Location: Pinhead Observatory
(34.4473°N, 118.1985°W)
Time: 00:02:07
(UTC-08:00)

CZ-4C R/B - Visible Passes

Search period start: 05 March 2015 00:00
Search period end: 15 March 2015 01:00
Orbit: 776 x 1226 km, 63.4° (Epoch: 04 March)

Date Brightness Start Highest point End Pass type
(mag) Time Alt. Az. Time Alt. Az. Time Alt. Az.
05 Mar 4.4 20:40:16 10° N 20:43:03 20° NNE 20:43:03 20° NNE visible
05 Mar 5.4 22:28:01 10° NW 22:28:15 11° NW 22:28:15 11° NW visible
06 Mar 4.6 19:27:34 10° NNE 19:29:52 12° NE 19:30:42 12° NE visible
06 Mar 4.4 21:13:13 10° NNW 21:15:55 25° N 21:15:55 25° N visible
07 Mar 4.2 19:59:14 10° N 20:03:37 22° NNE 20:03:37 22° NNE visible
07 Mar 4.7 21:46:40 10° NNW 21:48:50 22° NW 21:48:50 22° NW visible
08 Mar 3.7 21:32:02 10° NNW 21:36:36 36° NNE 21:36:36 36° NNE visible
08 Mar 5.2 23:20:46 10° NW 23:21:49 14° NW 23:21:49 14° NW visible
09 Mar 4.2 20:18:15 10° N 20:23:00 20° NE 20:24:25 19° ENE visible
09 Mar 3.8 22:05:22 10° NNW 22:09:38 41° NNW 22:09:38 41° NNW visible
10 Mar 3.4 20:50:54 10° NNW 20:57:20 37° NE 20:57:31 37° NE visible
10 Mar 4.4 22:39:16 10° NW 22:42:45 29° WNW 22:42:45 29° WNW visible
11 Mar 4.3 19:37:21 10° N 19:41:27 17° NE 19:45:30 11° ENE visible
11 Mar 2.8 21:24:06 10° NNW 21:30:44 71° NNE 21:30:44 71° NNE visible
11 Mar 5.1 23:14:14 10° WNW 23:15:58 15° WNW 23:15:58 15° WNW visible
12 Mar 3.6 20:09:47 10° NNW 20:15:53 31° NE 20:18:48 25° E visible
12 Mar 3.4 21:57:50 10° NW 22:04:02 53° W 22:04:02 53° W visible
13 Mar 2.9 20:42:52 10° NNW 20:49:54 62° NE 20:52:13 44° ESE visible
13 Mar 4.5 22:32:25 10° WNW 22:37:28 25° W 22:37:28 25° W visible
14 Mar 3.8 19:28:42 10° N 19:34:25 27° NE 19:40:31 11° ESE visible
14 Mar 3.1 21:16:26 10° NW 21:23:35 67° WSW 21:25:46 47° S visible
